Location: 22
(39.7117°N, 89.5929°W)
Time: 09:11:09
(UTC-05:00)

S-56A Canister/Altair - Pass Details

Date: 15 February 2023
Orbit: 638 x 2493 km, 38.9° (Epoch: 25 March)

Event Time Altitude Azimuth Distance (km) Brightness Sun altitude
Rises 13:19:59 0° 269° (W) 2,978 10.8 35.4°
Reaches altitude 10° 13:23:12 10° 243° (WSW) 2,182 10.6 35.2°
Maximum altitude 13:25:48 14° 211° (SSW) 2,039 11.3 35.0°
Drops below altitude 10° 13:28:44 10° 180° (S) 2,515 11.3 34.8°
Sets 13:32:59 0° 157° (SSE) 3,798 11.6 34.5°
